Pendleton, OR

8:39 PM PST on January 23, 2018 (GMT -0800)
Eastern Oreg Regional At Pendleton

Weather History for KPDT - November, 2013

Change the Weather History Date:

Friday, November 15, 2013

  Actual Average Record
Temperature  
Mean Temperature 43 °F 42 °F  
Max Temperature 48 °F 49 °F 71 °F (1896)
Min Temperature 37 °F 34 °F -6 °F (1955)
Degree Days  
Heating Degree Days 22 23  
Month to date heating degree days 310 315  
Since 1 July heating degree days 907 857  
Cooling Degree Days 0 0  
Month to date cooling degree days 0 0  
Year to date cooling degree days 831 636  
Moisture  
Dew Point 33 °F    
Average Humidity 64    
Maximum Humidity 79    
Minimum Humidity 49    
Precipitation  
Precipitation 0.07 in 0.05 in 0.68 in (1941)
Month to date precipitation 0.61 0.75  
Year to date precipitation 8.42 10.42  
Snow  
Snow 0.00 in 0.00 in 1.10 in (1958)
Month to date snowfall 0.0 0.3  
Year to date snowfall 0.2 8.1  
Since 1 July snowfall T 0.4  
Snow Depth 0.00 in    
Sea Level Pressure  
Sea Level Pressure 29.75 in    
Wind  
Wind Speed 15 mph (SSW)    
Max Wind Speed 30 mph    
Max Gust Speed 37 mph    
Visibility 10 miles    
Events Rain    
T = Trace of Precipitation, MM = Missing Value Source: NWS Daily Summary

Daily Weather History Graph

Daily Weather History Graph

Search for Another Location

Airport or City:

Trip Planner

Search our weather history database for the weather conditions in past years. The results will help you decide how hot, cold, wet, or windy it might be!

Date:

Astronomy

Nov. 15, 2013 Rise Set
Actual Time 6:55 AM PST 4:24 PM PST
Civil Twilight 6:23 AM PST 4:56 PM PST
Nautical Twilight 5:47 AM PST 5:32 PM PST
Astronomical Twilight 5:11 AM PST 6:07 PM PST
Moon 3:28 PM PST (11/15) 4:51 AM PST (11/15)
Length of Visible Light 10h 33m
Length of Day
9h 28m
Waxing Gibbous, 97% of the Moon is Illuminated
Nov 15
Waxing Gibbous
Nov 17
Full
Nov 25
Last Quarter
Dec 2
New
Dec 9
First Quarter

Hourly Weather History & Observations

Time (PST) Temp. Windchill Dew Point Humidity Pressure Visibility Wind Dir Wind Speed Gust Speed Precip Events Conditions
12:53 AM 39.0 °F 33.4 °F 33.1 °F 79% 29.98 in 10.0 mi WSW 8.1 mph - N/A   Clear
1:53 AM 39.9 °F 34.5 °F 32.0 °F 73% 29.96 in 10.0 mi SSW 8.1 mph - N/A   Clear
2:53 AM 41.0 °F 34.7 °F 32.0 °F 70% 29.95 in 10.0 mi South 10.4 mph - N/A   Mostly Cloudy
3:53 AM 39.9 °F 35.1 °F 32.0 °F 73% 29.94 in 10.0 mi SSE 6.9 mph - N/A   Partly Cloudy
4:53 AM 41.0 °F 35.8 °F 32.0 °F 70% 29.93 in 10.0 mi South 8.1 mph - N/A   Scattered Clouds
5:02 AM 39.9 °F 33.9 °F 32.0 °F 73% 29.92 in 10.0 mi SSE 9.2 mph - N/A   Mostly Cloudy
5:10 AM 39.9 °F 35.1 °F 32.0 °F 73% 29.91 in 10.0 mi SSE 6.9 mph - N/A   Mostly Cloudy
5:53 AM 37.0 °F 31.0 °F 30.9 °F 79% 29.91 in 10.0 mi South 8.1 mph - N/A   Scattered Clouds
6:53 AM 39.9 °F 32.9 °F 32.0 °F 73% 29.89 in 10.0 mi SW 11.5 mph - N/A   Overcast
7:53 AM 41.0 °F 35.8 °F 30.9 °F 67% 29.88 in 10.0 mi South 8.1 mph - N/A   Partly Cloudy
8:53 AM 44.1 °F 35.9 °F 30.9 °F 60% 29.88 in 10.0 mi WSW 19.6 mph - N/A   Mostly Cloudy
9:53 AM 44.1 °F 35.9 °F 30.0 °F 58% 29.86 in 10.0 mi WSW 19.6 mph 28.8 mph N/A   Partly Cloudy
10:53 AM 46.9 °F - 30.0 °F 52% 29.82 in 10.0 mi SW 20.7 mph 35.7 mph N/A   Scattered Clouds
11:53 AM 46.9 °F - 30.0 °F 52% 29.79 in 10.0 mi WSW 25.3 mph 33.4 mph N/A   Overcast
12:53 PM 46.9 °F - 30.0 °F 52% 29.76 in 10.0 mi WSW 26.5 mph - N/A   Scattered Clouds
1:53 PM 46.9 °F - 28.9 °F 50% 29.73 in 10.0 mi WSW 25.3 mph 31.1 mph N/A   Overcast
2:53 PM 46.0 °F 38.3 °F 28.0 °F 50% 29.70 in 10.0 mi WSW 20.7 mph 25.3 mph N/A   Overcast
3:44 PM 41.0 °F 30.2 °F 34.0 °F 76% 29.70 in 4.0 mi WSW 27.6 mph 36.8 mph 0.00 in Rain Light Rain
3:53 PM 41.0 °F 31.4 °F 34.0 °F 76% 29.70 in 6.0 mi WSW 21.9 mph 33.4 mph 0.01 in Rain Light Rain
4:17 PM 41.0 °F 32.5 °F 34.0 °F 76% 29.68 in 10.0 mi SW 17.3 mph - 0.00 in Rain Light Rain
4:53 PM 39.9 °F 31.4 °F 34.0 °F 79% 29.68 in 10.0 mi SW 16.1 mph - 0.01 in Rain Light Rain
5:53 PM 39.0 °F 30.6 °F 35.1 °F 86% 29.66 in 10.0 mi SSW 15.0 mph - 0.00 in   Overcast
6:53 PM 41.0 °F 33.5 °F 34.0 °F 76% 29.61 in 10.0 mi SSW 13.8 mph - N/A   Overcast
7:53 PM 42.1 °F 34.5 °F 34.0 °F 73% 29.58 in 10.0 mi SSW 15.0 mph 24.2 mph 0.01 in Rain Light Rain
8:51 PM 41.0 °F 34.3 °F 35.6 °F 81% 29.55 in 8.0 mi SW 11.5 mph - 0.01 in Rain Light Rain
8:53 PM 41.0 °F 34.7 °F 35.1 °F 79% 29.55 in 9.0 mi SSW 10.4 mph - 0.01 in Rain Light Rain
9:35 PM 41.0 °F 34.3 °F 35.1 °F 79% 29.52 in 9.0 mi South 11.5 mph - 0.03 in Rain Light Rain
9:53 PM 41.0 °F 34.7 °F 35.1 °F 79% 29.50 in 10.0 mi South 10.4 mph - 0.03 in   Overcast
10:53 PM 41.0 °F 33.1 °F 35.1 °F 79% 29.46 in 10.0 mi South 15.0 mph - N/A   Overcast
11:53 PM 42.1 °F 35.7 °F 34.0 °F 73% 29.41 in 10.0 mi South 11.5 mph - 0.00 in   Overcast